N2112P KDLS-KEAT

Flight info

Callsign N2112P
Flight time N/A
Altitude 9500
Route LTJ YKM ELN EAT
Aircraft C172/L-ICAO/L

Departure

Time 2026-05-06 01:19
Airport Columbia Gorge Regional Airport (KDLS)

Arrival

Time N/A
Airport Pangborn Memorial Airport (KEAT)
Time Latitude Longitude Altitude Speed Heading
2026-05-06 00:53 45.61826 -121.17139 228 ft 0 kts 143°
2026-05-06 01:08 45.61825 -121.17137 228 ft 2 kts 141°
2026-05-06 01:08 45.61817 -121.17082 229 ft 10 kts 131°
2026-05-06 01:09 45.61741 -121.17000 232 ft 16 kts 147°
2026-05-06 01:09 45.61693 -121.16951 233 ft 0 kts 142°
2026-05-06 01:15 45.61673 -121.16928 234 ft 9 kts 138°
2026-05-06 01:15 45.61643 -121.16816 236 ft 14 kts 105°
2026-05-06 01:15 45.61578 -121.16702 238 ft 18 kts 143°
2026-05-06 01:16 45.61463 -121.16585 241 ft 23 kts 145°
2026-05-06 01:16 45.61326 -121.16447 245 ft 25 kts 144°
2026-05-06 01:16 45.61215 -121.16335 248 ft 15 kts 142°
2026-05-06 01:16 45.61184 -121.16262 249 ft 8 kts 57°
2026-05-06 01:17 45.61260 -121.16242 247 ft 18 kts 329°
2026-05-06 01:17 45.61464 -121.16441 243 ft 52 kts 323°
2026-05-06 01:17 45.61779 -121.16780 329 ft 62 kts 326°
2026-05-06 01:17 45.62165 -121.17155 420 ft 69 kts 327°
2026-05-06 01:18 45.62612 -121.17516 570 ft 78 kts 343°
2026-05-06 01:18 45.63140 -121.17309 666 ft 93 kts 46°
2026-05-06 01:18 45.63331 -121.16320 698 ft 110 kts 75°
2026-05-06 01:18 45.63379 -121.15210 799 ft 114 kts 82°
2026-05-06 01:19 45.63456 -121.14116 951 ft 107 kts 75°
2026-05-06 01:19 45.63628 -121.13114 1118 ft 104 kts 67°
2026-05-06 01:19 45.63818 -121.12103 1282 ft 110 kts 72°
2026-05-06 01:19 45.63965 -121.10992 1427 ft 113 kts 75°
2026-05-06 01:20 45.64138 -121.09950 1634 ft 102 kts 57°
2026-05-06 01:20 45.64480 -121.09087 1773 ft 105 kts 57°
2026-05-06 01:20 45.64752 -121.08081 1848 ft 110 kts 65°
2026-05-06 01:20 45.64940 -121.07025 1955 ft 112 kts 76°
2026-05-06 01:21 45.65098 -121.05951 2043 ft 113 kts 78°
2026-05-06 01:21 45.65229 -121.04855 2137 ft 110 kts 75°
2026-05-06 01:21 45.65339 -121.03770 2250 ft 109 kts 80°
2026-05-06 01:21 45.65445 -121.02734 2370 ft 103 kts 81°
2026-05-06 01:22 45.65571 -121.01735 2483 ft 103 kts 80°
2026-05-06 01:22 45.65682 -121.00725 2608 ft 103 kts 80°
2026-05-06 01:22 45.65785 -120.99721 2731 ft 101 kts 79°
2026-05-06 01:22 45.65882 -120.98702 2862 ft 106 kts 81°
2026-05-06 01:23 45.66189 -120.97814 2966 ft 98 kts 13°
2026-05-06 01:23 45.66816 -120.97671 3112 ft 91 kts
2026-05-06 01:23 45.67436 -120.97524 3222 ft 91 kts
2026-05-06 01:23 45.68058 -120.97384 3353 ft 88 kts 356°
2026-05-06 01:24 45.68682 -120.97267 3467 ft 91 kts 358°
2026-05-06 01:24 45.69264 -120.97444 3599 ft 87 kts 342°
2026-05-06 01:24 45.69864 -120.97664 3716 ft 90 kts 337°
2026-05-06 01:24 45.70482 -120.97908 3847 ft 93 kts 339°
2026-05-06 01:25 45.71098 -120.98156 3969 ft 92 kts 342°
2026-05-06 01:25 45.71714 -120.98394 4091 ft 91 kts 338°
2026-05-06 01:25 45.72317 -120.98598 4196 ft 86 kts 338°
2026-05-06 01:25 45.72892 -120.98787 4316 ft 84 kts 343°
2026-05-06 01:26 45.73435 -120.99008 4416 ft 78 kts 343°
2026-05-06 01:26 45.73946 -120.99184 4528 ft 73 kts 339°
2026-05-06 01:26 45.74461 -120.99388 4427 ft 95 kts 339°
2026-05-06 01:26 45.75163 -120.99495 4423 ft 104 kts 355°
2026-05-06 01:27 45.75887 -120.99479 4512 ft 102 kts 357°
2026-05-06 01:27 45.76586 -120.99458 4616 ft 102 kts 357°
2026-05-06 01:27 45.77291 -120.99412 4715 ft 101 kts 358°
2026-05-06 01:27 45.78001 -120.99352 4802 ft 102 kts 360°
2026-05-06 01:28 45.78709 -120.99287 4901 ft 101 kts
2026-05-06 01:28 45.79412 -120.99218 4998 ft 100 kts 358°
2026-05-06 01:28 45.80108 -120.99147 5094 ft 100 kts 359°
2026-05-06 01:28 45.80806 -120.99071 5193 ft 101 kts
2026-05-06 01:29 45.81505 -120.98977 5295 ft 100 kts 359°
2026-05-06 01:29 45.82199 -120.98894 5382 ft 101 kts 358°
2026-05-06 01:29 45.82893 -120.98773 5494 ft 101 kts
2026-05-06 01:29 45.83599 -120.98646 5593 ft 103 kts
2026-05-06 01:30 45.84318 -120.98512 5691 ft 105 kts
2026-05-06 01:30 45.85039 -120.98362 5786 ft 104 kts
2026-05-06 01:30 45.85747 -120.98204 5883 ft 102 kts
2026-05-06 01:30 45.86445 -120.98040 5984 ft 102 kts
2026-05-06 01:31 45.87147 -120.97871 6087 ft 103 kts
2026-05-06 01:31 45.87848 -120.97692 6181 ft 101 kts
2026-05-06 01:31 45.88530 -120.97507 6274 ft 99 kts
2026-05-06 01:31 45.89194 -120.97322 6363 ft 95 kts
2026-05-06 01:32 45.89843 -120.97145 6461 ft 95 kts
2026-05-06 01:32 45.90490 -120.96961 6557 ft 96 kts
2026-05-06 01:32 45.91137 -120.96756 6649 ft 95 kts 10°
2026-05-06 01:32 45.91778 -120.96552 6744 ft 94 kts
2026-05-06 01:33 45.92395 -120.96345 6826 ft 90 kts
2026-05-06 01:33 45.93003 -120.96142 6915 ft 88 kts
2026-05-06 01:33 45.93595 -120.95945 7012 ft 89 kts 10°
2026-05-06 01:33 45.94202 -120.95743 7115 ft 91 kts 12°
2026-05-06 01:34 45.94821 -120.95524 7224 ft 92 kts
2026-05-06 01:34 45.95439 -120.95299 7314 ft 91 kts 11°
2026-05-06 01:34 45.96046 -120.95077 7406 ft 89 kts 11°
2026-05-06 01:34 45.96630 -120.94866 7496 ft 85 kts 12°
2026-05-06 01:35 45.97195 -120.94654 7554 ft 85 kts 11°
2026-05-06 01:35 45.97772 -120.94438 7604 ft 87 kts 10°
2026-05-06 01:35 45.98367 -120.94211 7664 ft 91 kts 13°
2026-05-06 01:35 45.98985 -120.93960 7729 ft 93 kts 14°
2026-05-06 01:36 45.99608 -120.93691 7787 ft 93 kts 14°
2026-05-06 01:36 46.00224 -120.93383 7843 ft 95 kts 20°
2026-05-06 01:36 46.00855 -120.93028 7897 ft 100 kts 18°
2026-05-06 01:36 46.01510 -120.92681 7952 ft 102 kts 17°
2026-05-06 01:37 46.02170 -120.92304 8006 ft 103 kts 19°
2026-05-06 01:37 46.02836 -120.91912 8056 ft 104 kts 20°
2026-05-06 01:37 46.03506 -120.91503 8109 ft 106 kts 19°
2026-05-06 01:37 46.04179 -120.91072 8164 ft 105 kts 20°
2026-05-06 01:38 46.04839 -120.90624 8228 ft 104 kts 22°
2026-05-06 01:38 46.05476 -120.90170 8321 ft 101 kts 24°
2026-05-06 01:38 46.06090 -120.89720 8418 ft 99 kts 25°
2026-05-06 01:38 46.06688 -120.89260 8510 ft 96 kts 25°
2026-05-06 01:39 46.07265 -120.88804 8594 ft 93 kts 27°
2026-05-06 01:39 46.07833 -120.88345 8636 ft 95 kts 27°
2026-05-06 01:39 46.08405 -120.87869 8693 ft 95 kts 28°
2026-05-06 01:39 46.08979 -120.87370 8754 ft 97 kts 30°
2026-05-06 01:40 46.09560 -120.86851 8807 ft 98 kts 30°
2026-05-06 01:40 46.10139 -120.86318 8855 ft 99 kts 29°
2026-05-06 01:40 46.10711 -120.85773 8909 ft 99 kts 32°
2026-05-06 01:40 46.11282 -120.85217 8958 ft 99 kts 26°
2026-05-06 01:41 46.11868 -120.84671 9001 ft 102 kts 28°
2026-05-06 01:41 46.12455 -120.84097 9052 ft 102 kts 28°
2026-05-06 01:41 46.13029 -120.83519 9100 ft 101 kts 29°
2026-05-06 01:41 46.13605 -120.82919 9153 ft 101 kts 30°
2026-05-06 01:42 46.14174 -120.82309 9205 ft 103 kts 31°
2026-05-06 01:42 46.14651 -120.81786 9250 ft 103 kts 32°
2026-05-06 01:42 46.15218 -120.81146 9300 ft 104 kts 32°
2026-05-06 01:42 46.15783 -120.80504 9345 ft 103 kts 31°
2026-05-06 01:43 46.16347 -120.79867 9407 ft 103 kts 32°
2026-05-06 01:43 46.16899 -120.79231 9454 ft 103 kts 32°
2026-05-06 01:43 46.17464 -120.78567 9499 ft 105 kts 33°
2026-05-06 01:43 46.18031 -120.77892 9508 ft 109 kts 33°
2026-05-06 01:44 46.18623 -120.77173 9508 ft 113 kts 34°
2026-05-06 01:44 46.19224 -120.76422 9497 ft 116 kts 35°
2026-05-06 01:44 46.19834 -120.75646 9497 ft 118 kts 36°
2026-05-06 01:44 46.20443 -120.74849 9499 ft 119 kts 36°
2026-05-06 01:45 46.21053 -120.74031 9499 ft 120 kts 37°
2026-05-06 01:45 46.21658 -120.73198 9497 ft 120 kts 38°
2026-05-06 01:45 46.22256 -120.72353 9497 ft 120 kts 39°
2026-05-06 01:45 46.22847 -120.71496 9495 ft 119 kts 39°
2026-05-06 01:46 46.23426 -120.70635 9491 ft 120 kts 40°
2026-05-06 01:46 46.24000 -120.69759 9488 ft 120 kts 41°
2026-05-06 01:46 46.24556 -120.68883 9488 ft 119 kts 42°
2026-05-06 01:46 46.25105 -120.67992 9492 ft 117 kts 43°
2026-05-06 01:47 46.25638 -120.67099 9494 ft 118 kts 44°
2026-05-06 01:47 46.26262 -120.66444 9487 ft 108 kts
2026-05-06 01:47 46.27005 -120.66354 9485 ft 108 kts
2026-05-06 01:47 46.27759 -120.66256 9486 ft 110 kts 359°
2026-05-06 01:48 46.28527 -120.66300 9489 ft 111 kts 352°
2026-05-06 01:48 46.29309 -120.66227 9492 ft 114 kts
2026-05-06 01:48 46.30097 -120.66083 9491 ft 115 kts
2026-05-06 01:48 46.30888 -120.65898 9492 ft 115 kts
2026-05-06 01:49 46.31677 -120.65695 9490 ft 115 kts
2026-05-06 01:49 46.32463 -120.65484 9491 ft 115 kts
2026-05-06 01:49 46.33240 -120.65270 9499 ft 115 kts
2026-05-06 01:49 46.34017 -120.65055 9490 ft 112 kts
2026-05-06 01:50 46.34778 -120.64846 9494 ft 110 kts
2026-05-06 01:50 46.35530 -120.64639 9491 ft 110 kts
2026-05-06 01:50 46.36177 -120.64460 9489 ft 109 kts
2026-05-06 01:50 46.36922 -120.64253 9488 ft 109 kts
2026-05-06 01:51 46.37663 -120.64047 9486 ft 109 kts
2026-05-06 01:51 46.38406 -120.63842 9482 ft 108 kts
2026-05-06 01:51 46.39148 -120.63636 9482 ft 109 kts
2026-05-06 01:51 46.39893 -120.63428 9470 ft 109 kts
2026-05-06 01:52 46.40635 -120.63221 9478 ft 108 kts
2026-05-06 01:52 46.41379 -120.63014 9477 ft 109 kts
2026-05-06 01:52 46.42121 -120.62808 9478 ft 108 kts
2026-05-06 01:52 46.42864 -120.62602 9477 ft 109 kts
2026-05-06 01:53 46.43605 -120.62395 9484 ft 108 kts
2026-05-06 01:53 46.44342 -120.62188 9484 ft 108 kts
2026-05-06 01:53 46.45079 -120.61983 9483 ft 108 kts
2026-05-06 01:53 46.45818 -120.61777 9483 ft 108 kts
2026-05-06 01:54 46.46554 -120.61573 9480 ft 107 kts
2026-05-06 01:54 46.47284 -120.61370 9480 ft 107 kts
2026-05-06 01:54 46.48010 -120.61167 9484 ft 106 kts
2026-05-06 01:54 46.48736 -120.60965 9486 ft 107 kts
2026-05-06 01:55 46.49470 -120.60760 9486 ft 108 kts
2026-05-06 01:55 46.50204 -120.60555 9486 ft 107 kts
2026-05-06 01:55 46.50939 -120.60348 9492 ft 109 kts
2026-05-06 01:55 46.51680 -120.60143 9490 ft 108 kts
2026-05-06 01:56 46.52428 -120.59934 9494 ft 111 kts
2026-05-06 01:56 46.53189 -120.59722 9492 ft 112 kts
2026-05-06 01:56 46.53851 -120.59536 9496 ft 111 kts
2026-05-06 01:56 46.54601 -120.59324 9495 ft 111 kts
2026-05-06 01:57 46.55370 -120.59112 9494 ft 111 kts
2026-05-06 01:57 46.56104 -120.58814 9494 ft 115 kts 24°
2026-05-06 01:57 46.56818 -120.58194 9377 ft 123 kts 24°
2026-05-06 01:57 46.57572 -120.57559 9260 ft 128 kts 25°
2026-05-06 01:58 46.58349 -120.56910 9135 ft 130 kts 24°
2026-05-06 01:58 46.59135 -120.56256 9010 ft 131 kts 24°
2026-05-06 01:58 46.59931 -120.55598 8884 ft 132 kts 24°
2026-05-06 01:58 46.60729 -120.54942 8757 ft 132 kts 25°
2026-05-06 01:59 46.61530 -120.54290 8629 ft 133 kts 24°
2026-05-06 01:59 46.62336 -120.53631 8506 ft 133 kts 24°
2026-05-06 01:59 46.63138 -120.52982 8375 ft 131 kts 25°
2026-05-06 01:59 46.63939 -120.52339 8262 ft 132 kts 24°
2026-05-06 02:00 46.64750 -120.51696 8073 ft 131 kts 25°
2026-05-06 02:00 46.65555 -120.51086 7892 ft 130 kts 24°
2026-05-06 02:00 46.66353 -120.50487 7718 ft 129 kts 24°
2026-05-06 02:00 46.67147 -120.49897 7546 ft 128 kts 24°
2026-05-06 02:01 46.67945 -120.49306 7378 ft 129 kts 24°
2026-05-06 02:01 46.68743 -120.48715 7210 ft 129 kts 24°
2026-05-06 02:01 46.69545 -120.48129 7039 ft 129 kts 24°
2026-05-06 02:01 46.70349 -120.47543 6874 ft 129 kts 24°
2026-05-06 02:02 46.71152 -120.46961 6700 ft 129 kts 24°
2026-05-06 02:02 46.71954 -120.46389 6528 ft 128 kts 24°
2026-05-06 02:02 46.72747 -120.45828 6351 ft 126 kts 22°
2026-05-06 02:02 46.73580 -120.45449 6190 ft 126 kts
2026-05-06 02:03 46.74461 -120.45341 6016 ft 128 kts
2026-05-06 02:03 46.75347 -120.45243 5859 ft 128 kts
2026-05-06 02:03 46.76229 -120.45123 5713 ft 129 kts
2026-05-06 02:03 46.77114 -120.44965 5561 ft 128 kts
2026-05-06 02:04 46.77999 -120.44860 5414 ft 127 kts 358°
2026-05-06 02:04 46.78883 -120.44853 5269 ft 128 kts 359°
2026-05-06 02:04 46.79775 -120.44848 5119 ft 128 kts 358°
2026-05-06 02:04 46.80664 -120.44855 4984 ft 128 kts 358°
2026-05-06 02:05 46.81553 -120.44878 4841 ft 128 kts 355°
2026-05-06 02:05 46.82448 -120.44919 4694 ft 129 kts 356°
2026-05-06 02:05 46.83332 -120.44973 4544 ft 126 kts 354°
2026-05-06 02:05 46.84206 -120.45024 4396 ft 125 kts 355°
2026-05-06 02:06 46.85085 -120.45061 4254 ft 127 kts 355°
2026-05-06 02:06 46.85973 -120.45106 4118 ft 129 kts 356°
2026-05-06 02:06 46.86864 -120.45149 3968 ft 128 kts 356°
2026-05-06 02:06 46.87752 -120.45197 3821 ft 128 kts 356°
2026-05-06 02:07 46.88647 -120.45254 3681 ft 129 kts 355°
2026-05-06 02:07 46.89544 -120.45314 3525 ft 127 kts 354°
2026-05-06 02:07 46.90413 -120.45353 3385 ft 125 kts 355°
2026-05-06 02:07 46.91278 -120.45392 3244 ft 124 kts 355°
2026-05-06 02:08 46.92148 -120.45449 3100 ft 127 kts 355°
2026-05-06 02:08 46.93003 -120.45501 3227 ft 121 kts 355°
2026-05-06 02:08 46.93836 -120.45536 3341 ft 117 kts 354°
2026-05-06 02:08 46.94636 -120.45587 3455 ft 113 kts 355°
2026-05-06 02:09 46.95419 -120.45637 3572 ft 112 kts 356°
2026-05-06 02:09 46.96189 -120.45680 3692 ft 111 kts 356°
2026-05-06 02:09 46.96955 -120.45763 3806 ft 112 kts 355°
2026-05-06 02:09 46.97729 -120.45852 3930 ft 112 kts 354°
2026-05-06 02:10 46.98510 -120.45938 4047 ft 112 kts 354°
2026-05-06 02:10 46.99273 -120.46021 4159 ft 108 kts 349°
2026-05-06 02:10 46.99957 -120.46411 4276 ft 105 kts 344°
2026-05-06 02:10 47.00648 -120.46793 4317 ft 108 kts 330°
2026-05-06 02:11 47.01312 -120.47251 4448 ft 105 kts 329°
2026-05-06 02:11 47.01944 -120.47790 4577 ft 101 kts 319°
2026-05-06 02:11 47.02471 -120.48585 4410 ft 119 kts 312°
2026-05-06 02:11 47.03097 -120.49381 4292 ft 123 kts 317°
2026-05-06 02:12 47.03711 -120.50316 4049 ft 129 kts 304°
2026-05-06 02:12 47.04094 -120.51461 3906 ft 123 kts 276°
2026-05-06 02:12 47.04100 -120.52738 3628 ft 126 kts 262°
2026-05-06 02:12 47.04022 -120.53989 3430 ft 124 kts 269°
2026-05-06 02:13 47.03985 -120.55189 3314 ft 114 kts 244°
2026-05-06 02:13 47.03404 -120.55890 3223 ft 112 kts 195°
2026-05-06 02:13 47.02732 -120.55492 3155 ft 111 kts 129°
2026-05-06 02:13 47.02605 -120.54356 2966 ft 120 kts 73°
2026-05-06 02:14 47.03039 -120.53327 2834 ft 120 kts 55°
2026-05-06 02:14 47.03447 -120.52263 2628 ft 116 kts 72°
2026-05-06 02:14 47.03647 -120.51174 2449 ft 109 kts 66°
2026-05-06 02:14 47.03825 -120.50144 2329 ft 103 kts 89°
2026-05-06 02:15 47.03690 -120.49154 2296 ft 99 kts 143°
2026-05-06 02:15 47.03170 -120.49241 2240 ft 82 kts 263°
2026-05-06 02:15 47.03215 -120.50107 2052 ft 93 kts 276°
2026-05-06 02:15 47.03217 -120.51056 1933 ft 90 kts 269°
2026-05-06 02:16 47.03194 -120.51895 1800 ft 76 kts 270°
2026-05-06 02:16 47.03176 -120.52562 1753 ft 53 kts 268°
2026-05-06 02:16 47.03170 -120.52998 1754 ft 34 kts 268°
2026-05-06 02:16 47.03160 -120.53276 1752 ft 20 kts 263°
2026-05-06 02:17 47.03078 -120.53376 1757 ft 14 kts 200°
2026-05-06 02:17 47.03018 -120.53335 1757 ft 11 kts 90°
2026-05-06 02:17 47.03016 -120.53225 1756 ft 10 kts 91°
2026-05-06 02:17 47.03001 -120.53130 1755 ft 9 kts 105°
2026-05-06 02:18 47.02977 -120.53049 1755 ft 8 kts 105°
2026-05-06 02:18 47.02977 -120.53012 1755 ft 0 kts 47°